TimeMST,TemperatureF,Dew PointF,Humidity,Sea Level PressureIn,VisibilityMPH,Wind Direction,Wind SpeedMPH,Gust SpeedMPH,PrecipitationIn,Events,Conditions,WindDirDegrees,DateUTC
1:53 AM,46.0,18.0,33,29.91,10.0,West,3.5,-,N/A,,Clear,270,2012-11-08 08:53:00
2:53 AM,46.0,23.0,40,29.89,10.0,WNW,3.5,-,N/A,,Clear,290,2012-11-08 09:53:00
3:53 AM,46.9,19.9,34,29.88,10.0,NW,5.8,-,N/A,,Clear,310,2012-11-08 10:53:00
4:53 AM,46.9,19.9,34,29.90,10.0,WNW,8.1,-,N/A,,Clear,300,2012-11-08 11:53:00
5:53 AM,46.9,21.9,37,29.92,10.0,Calm,Calm,-,N/A,,Clear,0,2012-11-08 12:53:00
6:53 AM,45.0,19.0,36,29.95,10.0,Calm,Calm,-,N/A,,Clear,0,2012-11-08 13:53:00
7:53 AM,51.1,21.9,32,29.96,10.0,Calm,Calm,-,N/A,,Clear,0,2012-11-08 14:53:00
8:53 AM,57.0,21.9,26,29.96,10.0,Calm,Calm,-,N/A,,Clear,0,2012-11-08 15:53:00
10:53 AM,73.0,26.1,17,29.91,10.0,Calm,Calm,-,N/A,,Clear,0,2012-11-08 17:53:00
11:53 AM,75.0,27.0,17,29.88,10.0,SSW,6.9,-,N/A,,Clear,200,2012-11-08 18:53:00
12:53 PM,78.1,28.9,17,29.83,10.0,West,10.4,25.3,N/A,,Clear,260,2012-11-08 19:53:00
1:53 PM,79.0,27.0,15,29.81,10.0,WSW,12.7,19.6,N/A,,Clear,250,2012-11-08 20:53:00
2:53 PM,77.0,27.0,16,29.82,10.0,West,11.5,-,N/A,,Clear,280,2012-11-08 21:53:00
3:53 PM,75.0,28.0,18,29.83,10.0,West,13.8,21.9,N/A,,Clear,260,2012-11-08 22:53:00
4:53 PM,73.0,27.0,18,29.84,10.0,West,13.8,-,N/A,,Clear,280,2012-11-08 23:53:00
5:53 PM,66.9,19.9,17,29.86,10.0,West,8.1,-,N/A,,Clear,270,2012-11-09 00:53:00
6:53 PM,61.0,21.0,21,29.90,10.0,West,6.9,-,N/A,,Clear,260,2012-11-09 01:53:00
7:53 PM,55.9,19.9,25,29.90,10.0,WSW,5.8,-,N/A,,Clear,250,2012-11-09 02:53:00
8:53 PM,60.1,30.9,33,29.88,10.0,West,8.1,-,N/A,,Clear,260,2012-11-09 03:53:00
9:53 PM,62.1,36.0,38,29.87,10.0,West,12.7,-,N/A,,Clear,270,2012-11-09 04:53:00
10:53 PM,55.9,33.1,42,29.87,10.0,Calm,Calm,-,N/A,,Partly Cloudy,0,2012-11-09 05:53:00
11:53 PM,60.1,41.0,49,29.86,10.0,WSW,10.4,-,0.00,,Mostly Cloudy,250,2012-11-09 06:53:00